Location: Devore Heights
(34.2372°N, 117.4156°W)
Time: 08:55:13
(UTC+00:00)

Vanguard 1 Rocket - Pass Details

Date: 20 September 2024
Orbit: 650 x 4218 km, 34.3° (Epoch: 09 October)

Event Time Altitude Azimuth Distance (km) Brightness Sun altitude
Rises 13:42:19 0° 279° (W) 6,035 10.9 0.3°
Reaches altitude 10° 13:45:33 10° 279° (W) 5,391 10.7 1.0°
Maximum altitude 14:04:06 85° 194° (SSW) 3,846 10.7 4.8°
Drops below altitude 10° 14:30:51 10° 110° (ESE) 7,278 14.1 10.3°
Sets 14:36:08 0° 110° (ESE) 8,111 14.0 11.4°
